TimeEST,TemperatureF,Dew PointF,Humidity,Sea Level PressureIn,VisibilityMPH,Wind Direction,Wind SpeedMPH,Gust SpeedMPH,PrecipitationIn,Events,Conditions,WindDirDegrees,DateUTC
12:53 AM,24.8,24.8,100,30.31,3.0,Calm,Calm,-,N/A,,Clear,0,2012-12-14 05:53:00
1:53 AM,26.1,26.1,100,30.32,5.0,Calm,Calm,-,N/A,,Clear,0,2012-12-14 06:53:00
1:59 AM,24.8,24.8,100,30.31,1.8,Calm,Calm,-,N/A,,Clear,0,2012-12-14 06:59:00
2:16 AM,26.6,26.6,100,30.31,3.0,Calm,Calm,-,N/A,,Clear,0,2012-12-14 07:16:00
2:37 AM,24.8,24.8,100,30.31,1.8,Calm,Calm,-,N/A,,Clear,0,2012-12-14 07:37:00
2:48 AM,26.6,24.8,93,30.31,3.0,Calm,Calm,-,N/A,,Clear,0,2012-12-14 07:48:00
2:53 AM,26.1,26.1,100,30.32,4.0,Calm,Calm,-,N/A,,Clear,0,2012-12-14 07:53:00
3:05 AM,26.6,26.6,100,30.32,1.8,Calm,Calm,-,N/A,,Partly Cloudy,0,2012-12-14 08:05:00
3:10 AM,26.6,24.8,93,30.32,0.8,Calm,Calm,-,N/A,,Mist,0,2012-12-14 08:10:00
3:30 AM,24.8,24.8,100,30.32,1.5,Calm,Calm,-,N/A,,Partly Cloudy,0,2012-12-14 08:30:00
3:35 AM,24.8,24.8,100,30.32,3.0,Calm,Calm,-,N/A,,Partly Cloudy,0,2012-12-14 08:35:00
3:53 AM,24.1,24.1,100,30.34,4.0,Calm,Calm,-,N/A,,Clear,0,2012-12-14 08:53:00
4:20 AM,24.8,24.8,100,30.33,5.0,Calm,Calm,-,N/A,,Scattered Clouds,0,2012-12-14 09:20:00
4:29 AM,24.8,23.0,93,30.33,5.0,Calm,Calm,-,N/A,,Mostly Cloudy,0,2012-12-14 09:29:00
4:40 AM,23.0,23.0,100,30.32,1.5,Calm,Calm,-,N/A,,Overcast,0,2012-12-14 09:40:00
4:49 AM,24.8,24.8,100,30.32,0.5,Calm,Calm,-,N/A,Fog,Light Freezing Fog,0,2012-12-14 09:49:00
4:53 AM,25.0,25.0,100,30.34,0.2,Calm,Calm,-,N/A,Fog,Light Freezing Fog,0,2012-12-14 09:53:00
5:53 AM,26.1,25.0,96,30.33,0.2,Calm,Calm,-,N/A,Fog,Light Freezing Fog,0,2012-12-14 10:53:00
6:53 AM,25.0,25.0,100,30.35,0.2,Calm,Calm,-,N/A,Fog,Light Freezing Fog,0,2012-12-14 11:53:00
7:53 AM,26.1,26.1,100,30.35,0.2,Calm,Calm,-,N/A,Fog,Light Freezing Fog,0,2012-12-14 12:53:00
8:33 AM,26.6,26.6,100,30.33,0.8,Calm,Calm,-,N/A,,Mist,0,2012-12-14 13:33:00
8:51 AM,26.6,26.6,100,30.33,2.0,Calm,Calm,-,N/A,,Scattered Clouds,0,2012-12-14 13:51:00
8:53 AM,27.0,27.0,100,30.35,1.5,Calm,Calm,-,N/A,,Scattered Clouds,0,2012-12-14 13:53:00
9:14 AM,30.2,28.4,93,30.33,3.0,SW,3.5,-,N/A,,Partly Cloudy,220,2012-12-14 14:14:00
9:53 AM,30.9,30.9,100,30.35,10.0,Calm,Calm,-,N/A,,Clear,0,2012-12-14 14:53:00
10:53 AM,37.9,34.0,86,30.35,10.0,Calm,Calm,-,N/A,,Clear,0,2012-12-14 15:53:00
11:53 AM,45.0,33.1,63,30.32,10.0,SW,3.5,-,N/A,,Clear,220,2012-12-14 16:53:00
12:53 PM,51.1,30.0,44,30.30,10.0,Calm,Calm,-,N/A,,Clear,0,2012-12-14 17:53:00
1:53 PM,54.0,26.1,34,30.25,10.0,SW,8.1,-,N/A,,Clear,220,2012-12-14 18:53:00
2:53 PM,55.0,25.0,31,30.23,10.0,SW,6.9,-,N/A,,Clear,220,2012-12-14 19:53:00
3:53 PM,53.1,28.0,38,30.22,10.0,SW,4.6,-,N/A,,Clear,220,2012-12-14 20:53:00
4:53 PM,48.9,26.1,41,30.22,10.0,South,4.6,-,N/A,,Clear,190,2012-12-14 21:53:00
5:53 PM,42.1,28.9,60,30.22,10.0,Calm,Calm,-,N/A,,Clear,0,2012-12-14 22:53:00
6:53 PM,39.0,28.9,67,30.22,10.0,Calm,Calm,-,N/A,,Clear,0,2012-12-14 23:53:00
7:53 PM,36.0,32.0,86,30.23,10.0,Calm,Calm,-,N/A,,Clear,0,2012-12-15 00:53:00
8:53 PM,35.1,30.9,85,30.24,10.0,Calm,Calm,-,N/A,,Clear,0,2012-12-15 01:53:00
9:53 PM,36.0,30.9,82,30.22,10.0,Calm,Calm,-,N/A,,Clear,0,2012-12-15 02:53:00
10:53 PM,35.1,32.0,89,30.21,10.0,Calm,Calm,-,N/A,,Clear,0,2012-12-15 03:53:00
11:53 PM,35.1,32.0,89,30.20,10.0,Calm,Calm,-,N/A,,Clear,0,2012-12-15 04:53:00